TimeMST,TemperatureF,Dew PointF,Humidity,Sea Level PressureIn,VisibilityMPH,Wind Direction,Wind SpeedMPH,Gust SpeedMPH,PrecipitationIn,Events,Conditions,WindDirDegrees,DateUTC
12:53 AM,34.0,32.0,92,29.78,10.0,East,3.5,-,N/A,,Overcast,100,2013-01-28 07:53:00
1:33 AM,35.6,33.8,93,29.84,6.0,South,4.6,-,0.02,Rain,Light Rain,170,2013-01-28 08:33:00
1:53 AM,37.0,33.1,86,29.78,8.0,South,21.9,27.6,0.03,Rain,Light Rain,190,2013-01-28 08:53:00
2:07 AM,37.4,33.8,87,29.83,10.0,South,15.0,25.3,0.01,Rain,Light Rain,180,2013-01-28 09:07:00
2:53 AM,37.9,32.0,79,29.74,10.0,SW,6.9,-,0.01,,Overcast,230,2013-01-28 09:53:00
3:53 AM,37.0,33.1,86,29.74,10.0,SSW,10.4,-,0.00,Rain,Light Rain,200,2013-01-28 10:53:00
4:11 AM,35.6,33.8,93,29.81,3.0,South,13.8,-,0.04,Rain,Heavy Rain,190,2013-01-28 11:11:00
4:41 AM,35.6,33.8,93,29.80,10.0,South,5.8,-,0.05,,Overcast,190,2013-01-28 11:41:00
4:53 AM,35.1,33.1,92,29.73,8.0,South,5.8,-,0.06,Rain,Light Rain,180,2013-01-28 11:53:00
5:01 AM,35.6,33.8,93,29.79,6.0,Calm,Calm,-,0.01,Rain,Light Rain,0,2013-01-28 12:01:00
5:15 AM,35.6,33.8,93,29.79,10.0,NE,4.6,-,0.01,,Overcast,50,2013-01-28 12:15:00
5:53 AM,35.1,33.1,92,29.73,10.0,Calm,Calm,-,0.01,,Overcast,0,2013-01-28 12:53:00
6:53 AM,36.0,33.1,89,29.76,10.0,SSW,12.7,-,0.00,,Overcast,200,2013-01-28 13:53:00
7:35 AM,35.6,33.8,93,29.80,10.0,South,13.8,-,N/A,,Overcast,190,2013-01-28 14:35:00
7:53 AM,36.0,32.0,86,29.75,10.0,SSW,9.2,-,N/A,,Overcast,200,2013-01-28 14:53:00
8:20 AM,35.6,32.0,87,29.81,7.0,WNW,10.4,-,0.00,Rain,Light Rain,290,2013-01-28 15:20:00
8:26 AM,33.8,30.2,87,29.81,2.5,NW,10.4,-,0.01,Snow,Light Snow,310,2013-01-28 15:26:00
8:30 AM,33.8,30.2,87,29.81,1.8,WNW,9.2,-,0.01,Snow,Light Snow,290,2013-01-28 15:30:00
8:39 AM,33.8,32.0,93,29.81,1.0,SSW,3.5,-,0.03,Snow,Light Snow,200,2013-01-28 15:39:00
8:53 AM,33.1,30.9,92,29.78,2.0,South,4.6,-,0.05,Snow,Light Snow,190,2013-01-28 15:53:00
8:56 AM,33.8,30.2,87,29.81,3.0,Calm,Calm,-,0.00,Snow,Light Snow,0,2013-01-28 15:56:00
9:05 AM,33.8,30.2,87,29.81,6.0,WSW,3.5,-,0.00,Snow,Light Snow,240,2013-01-28 16:05:00
9:14 AM,33.8,30.2,87,29.81,2.5,Calm,Calm,-,0.01,Snow,Light Snow,0,2013-01-28 16:14:00
9:22 AM,33.8,30.2,87,29.80,4.0,Calm,Calm,-,0.01,Snow,Light Snow,0,2013-01-28 16:22:00
9:53 AM,35.1,30.9,85,29.77,9.0,Calm,Calm,-,0.01,,Overcast,0,2013-01-28 16:53:00
10:00 AM,33.8,30.2,87,29.80,2.0,Calm,Calm,-,0.00,Snow,Light Snow,0,2013-01-28 17:00:00
10:08 AM,33.8,30.2,87,29.81,1.8,West,3.5,-,0.00,Snow,Light Snow,260,2013-01-28 17:08:00
10:20 AM,33.8,30.2,87,29.81,0.5,NW,4.6,-,0.02,Fog-Snow,Snow,320,2013-01-28 17:20:00
10:34 AM,33.8,30.2,87,29.82,0.2,West,3.5,-,0.06,Fog-Snow,Heavy Snow,280,2013-01-28 17:34:00
10:51 AM,33.8,30.2,87,29.81,1.0,South,13.8,-,0.07,Snow,Light Snow,190,2013-01-28 17:51:00
10:53 AM,33.1,30.9,92,29.79,1.2,South,13.8,-,0.07,Snow,Light Snow,180,2013-01-28 17:53:00
11:04 AM,33.8,30.2,87,29.82,1.0,South,12.7,-,0.00,Snow,Light Snow,190,2013-01-28 18:04:00
11:11 AM,33.8,30.2,87,29.82,0.8,SSW,9.2,-,0.00,Snow,Light Snow,210,2013-01-28 18:11:00
11:19 AM,33.8,30.2,87,29.82,0.8,SW,8.1,-,0.01,Snow,Light Snow,220,2013-01-28 18:19:00
11:36 AM,33.8,30.2,87,29.82,1.0,WNW,6.9,-,0.01,Snow,Light Snow,290,2013-01-28 18:36:00
11:44 AM,32.0,30.2,93,29.82,0.5,West,9.2,-,0.04,Fog-Snow,Snow,260,2013-01-28 18:44:00
11:53 AM,32.0,30.0,92,29.81,1.5,West,5.8,-,0.04,Snow,Light Snow,260,2013-01-28 18:53:00
12:02 PM,32.0,30.2,93,29.82,0.8,West,6.9,-,0.01,Snow,Light Snow,270,2013-01-28 19:02:00
12:37 PM,32.0,30.2,93,29.82,1.0,WNW,8.1,-,0.05,Snow,Light Snow,300,2013-01-28 19:37:00
12:53 PM,32.0,28.9,88,29.80,1.0,Variable,3.5,-,0.05,Snow,Light Snow,0,2013-01-28 19:53:00
1:03 PM,32.0,28.4,87,29.81,2.0,Calm,Calm,-,0.00,Snow,Light Snow,0,2013-01-28 20:03:00
1:05 PM,32.0,30.2,93,29.80,3.0,Calm,Calm,-,0.00,Snow,Light Snow,0,2013-01-28 20:05:00
1:16 PM,33.8,28.4,81,29.80,9.0,Calm,Calm,-,0.00,Snow,Light Snow,0,2013-01-28 20:16:00
1:53 PM,33.1,30.0,89,29.77,10.0,Variable,3.5,-,0.00,,Overcast,0,2013-01-28 20:53:00
2:53 PM,33.1,27.0,78,29.77,8.0,North,-9999.0,-,N/A,,Overcast,0,2013-01-28 21:53:00
3:14 PM,32.0,26.6,80,29.81,2.5,SSW,18.4,-,0.00,Snow,Light Snow,200,2013-01-28 22:14:00
3:16 PM,32.0,26.6,80,29.81,1.8,SSW,17.3,-,0.00,Snow,Light Snow,200,2013-01-28 22:16:00
3:35 PM,32.0,28.4,87,29.81,2.0,South,11.5,-,0.00,Snow,Light Snow,190,2013-01-28 22:35:00
3:38 PM,32.0,28.4,87,29.81,3.0,South,11.5,-,0.00,Snow,Light Snow,180,2013-01-28 22:38:00
3:53 PM,33.1,27.0,78,29.77,9.0,South,8.1,-,0.00,,Overcast,180,2013-01-28 22:53:00
4:53 PM,32.0,25.0,75,29.77,10.0,South,6.9,-,N/A,,Mostly Cloudy,190,2013-01-28 23:53:00
5:53 PM,32.0,24.1,73,29.76,10.0,South,9.2,-,N/A,,Mostly Cloudy,190,2013-01-29 00:53:00
6:46 PM,30.2,26.6,86,29.79,7.0,West,10.4,-,0.00,Snow,Light Snow,280,2013-01-29 01:46:00
6:53 PM,30.0,28.0,92,29.78,4.0,WNW,10.4,17.3,0.00,Snow,Light Snow,290,2013-01-29 01:53:00
7:53 PM,30.0,25.0,82,29.79,10.0,WSW,3.5,-,0.00,,Overcast,240,2013-01-29 02:53:00
8:16 PM,30.2,24.8,80,29.80,10.0,WSW,4.6,-,N/A,,Overcast,250,2013-01-29 03:16:00
8:53 PM,30.0,25.0,82,29.80,10.0,West,3.5,-,N/A,,Overcast,280,2013-01-29 03:53:00
9:06 PM,26.6,21.2,80,29.81,10.0,North,10.4,-,N/A,,Overcast,350,2013-01-29 04:06:00
9:21 PM,26.6,21.2,80,29.81,10.0,North,6.9,-,N/A,,Overcast,350,2013-01-29 04:21:00
9:53 PM,27.0,21.9,81,29.82,7.0,NE,3.5,-,0.00,Snow,Light Snow,50,2013-01-29 04:53:00
10:23 PM,26.6,21.2,80,29.81,1.8,Calm,Calm,-,0.00,Snow,Light Snow,0,2013-01-29 05:23:00
10:34 PM,26.6,21.2,80,29.81,2.5,Calm,Calm,-,0.00,Snow,Light Snow,0,2013-01-29 05:34:00
10:42 PM,26.6,19.4,74,29.81,7.0,Calm,Calm,-,0.00,Snow,Light Snow,0,2013-01-29 05:42:00
10:50 PM,24.8,21.2,86,29.81,9.0,SE,4.6,-,0.00,Snow,Light Snow,140,2013-01-29 05:50:00
10:53 PM,25.0,21.0,85,29.83,9.0,SE,5.8,-,0.00,Snow,Light Snow,140,2013-01-29 05:53:00
11:53 PM,25.0,17.1,72,29.82,10.0,WNW,9.2,-,0.00,,Overcast,290,2013-01-29 06:53:00